Home   Weather   Ittoqqortoormiit   Past weeks
Flag for Greenland

Past Weather in Ittoqqortoormiit, Greenland — Yesterday and Last 2 Weeks

Now
24 °F

Sunny.


Feels Like: N/A
Forecast: 25 / 21 °F
Wind: N/A

Location: Scoresbysund

Current Time: Oct 14, 2019 at 10:27:19 am

Latest Report: Oct 14, 2019 at 9:00 am


Visibility: 31 mi

Pressure: 30.02 "Hg

Humidity: 75%

Dew Point: 17 °F

Location of IttoqqortoormiitLocation

Past Weather in Ittoqqortoormiit — Graph

°F

Ittoqqortoormiit Temperature Yesterday

Maximum temperature yesterday: 29 °F (at 2:00 pm)
Minimum temperature yesterday: 22 °F (at 6:00 am)
Average temperature yesterday: 26 °F

High & Low Weather Summary for the Past Weeks

 TemperatureHumidityPressure
High49 °F (Sep 29, 9:00 am)100% (Oct 3, 7:00 pm)30.31 "Hg (Oct 3, 7:00 pm)
Low22 °F (Oct 13, 6:00 am)34% (Sep 29, 9:00 am)29.56 "Hg (Oct 8, 5:00 am)
Average32 °F82%29.96 "Hg
* Reported Sep 29 9:00 am — Oct 14 9:00 am, Ittoqqortoormiit. Weather by CustomWeather, © 2019

Note: Actual official high and low records may vary slightly from our data, if they occured in-between our weather recording intervals... More about our weather records

Advertising

Ittoqqortoormiit Weather History for the Previous 24 Hours

Scroll right to see more
 ConditionsComfort  
Time TempWeatherWind HumidityBarometerVisibility
9:00 am
Mon, Oct 14
24 °FSunny.N/A75%30.02 "Hg31 mi
8:00 am24 °FClear.N/A74%30.02 "Hg31 mi
7:00 am25 °FClear.N/A72%30.01 "Hg31 mi
6:00 am24 °FClear.N/A76%30.01 "Hg31 mi
5:00 am25 °FClear.N/A74%30.01 "Hg31 mi
4:00 am26 °FClear.N/A70%30.01 "Hg31 mi
3:00 am26 °FClear.N/A71%30.01 "Hg31 mi
2:00 am26 °FClear.N/A71%30.01 "Hg31 mi
1:00 am26 °FClear.N/A71%30.01 "Hg31 mi
12:00 am26 °FClear.N/A72%30.01 "Hg31 mi
11:00 pm
Sun, Oct 13
25 °FClear.N/A76%30.01 "Hg31 mi
10:00 pm26 °FClear.N/A76%30.00 "Hg31 mi
9:00 pm27 °FPassing clouds.12 mph74%30.00 "Hg31 mi
8:00 pm28 °FOvercast.8 mph79%30.00 "Hg31 mi
7:00 pm28 °FOvercast.2 mph83%30.00 "Hg31 mi
6:00 pm28 °FOvercast.7 mph82%29.99 "Hg31 mi
5:00 pm28 °FOvercast.6 mph79%29.98 "Hg19 mi
4:00 pm29 °FOvercast.5 mph81%29.97 "Hg31 mi
3:00 pm29 °FOvercast.8 mph79%29.97 "Hg31 mi
2:00 pm29 °FOvercast.9 mph80%29.97 "Hg31 mi
1:00 pm28 °FOvercast.5 mph81%29.96 "Hg31 mi
12:00 pm27 °FFog.1 mph76%29.95 "Hg25 mi
11:00 am26 °FScattered clouds.1 mph81%29.94 "Hg31 mi
10:00 am25 °FOvercast.2 mph83%29.93 "Hg31 mi
Weather by CustomWeather, © 2019

See weather overview